Time,TemperatureF,DewpointF,PressureIn,WindDirection,WindDirectionDegrees,WindSpeedMPH,WindSpeedGustMPH,Humidity,HourlyPrecipIn,Conditions,Clouds,dailyrainin,SoftwareType,DateUTC
2013-06-04 00:02:00,59.0,43.0,-100.00,ESE,105,16.0,20.0,57,0.00,,,0.00,,2013-06-04 05:02:00,
2013-06-04 00:12:00,59.0,43.0,-100.00,East,100,11.0,20.0,57,0.00,,,0.00,,2013-06-04 05:12:00,
2013-06-04 00:22:00,58.0,43.0,-100.00,East,95,11.0,17.0,57,0.00,,,0.00,,2013-06-04 05:22:00,
2013-06-04 00:32:00,58.0,43.0,-100.00,East,100,11.0,18.0,57,0.00,,,0.00,,2013-06-04 05:32:00,
2013-06-04 00:42:00,58.0,43.0,-100.00,East,100,13.0,18.0,57,0.00,,,0.00,,2013-06-04 05:42:00,
2013-06-04 00:52:00,57.0,43.0,-100.00,East,100,14.0,19.0,57,0.00,,,0.00,,2013-06-04 05:52:00,
2013-06-04 01:02:00,57.0,43.0,-100.00,East,95,8.0,16.0,57,0.00,,,0.00,,2013-06-04 06:02:00,
2013-06-04 01:12:00,57.0,43.0,-100.00,East,100,9.0,16.0,57,0.00,,,0.00,,2013-06-04 06:12:00,
2013-06-04 01:22:00,57.0,43.0,-100.00,ESE,115,12.0,16.0,57,0.00,,,0.00,,2013-06-04 06:22:00,
2013-06-04 01:32:00,56.0,41.0,-100.00,ESE,105,9.0,14.0,58,0.00,,,0.00,,2013-06-04 06:32:00,
2013-06-04 01:42:00,56.0,43.0,-100.00,East,100,9.0,12.0,58,0.00,,,0.00,,2013-06-04 06:42:00,
2013-06-04 01:52:00,56.0,43.0,-100.00,ESE,110,9.0,12.0,58,0.00,,,0.00,,2013-06-04 06:52:00,
2013-06-04 02:02:00,56.0,43.0,-100.00,ESE,105,7.0,10.0,59,0.00,,,0.00,,2013-06-04 07:02:00,
2013-06-04 02:12:00,57.0,43.0,-100.00,NNE,20,2.0,8.0,59,0.00,,,0.00,,2013-06-04 07:12:00,
2013-06-04 02:22:00,57.0,43.0,-100.00,NW,315,2.0,6.0,59,0.00,,,0.00,,2013-06-04 07:22:00,
2013-06-04 02:32:00,56.0,43.0,-100.00,SE,140,9.0,12.0,60,0.00,,,0.00,,2013-06-04 07:32:00,
2013-06-04 02:42:00,57.0,43.0,-100.00,SSE,155,13.0,17.0,60,0.00,,,0.00,,2013-06-04 07:42:00,
2013-06-04 02:52:00,55.0,45.0,-100.00,SE,135,12.0,17.0,65,0.00,,,0.00,,2013-06-04 07:52:00,
2013-06-04 03:02:00,54.0,45.0,-100.00,SE,130,16.0,22.0,71,0.00,,,0.00,,2013-06-04 08:02:00,
2013-06-04 03:12:00,54.0,46.0,-100.00,SE,130,14.0,22.0,77,0.00,,,0.00,,2013-06-04 08:12:00,
2013-06-04 03:22:00,54.0,48.0,-100.00,SE,125,14.0,21.0,79,0.00,,,0.00,,2013-06-04 08:22:00,
2013-06-04 03:32:00,54.0,48.0,-100.00,ESE,120,17.0,24.0,79,0.00,,,0.00,,2013-06-04 08:32:00,
2013-06-04 03:42:00,54.0,48.0,-100.00,ESE,115,17.0,26.0,79,0.00,,,0.00,,2013-06-04 08:42:00,
2013-06-04 03:52:00,55.0,48.0,-100.00,ESE,115,13.0,21.0,79,0.00,,,0.00,,2013-06-04 08:52:00,
2013-06-04 04:02:00,55.0,48.0,-100.00,ESE,120,13.0,19.0,78,0.00,,,0.00,,2013-06-04 09:02:00,
2013-06-04 04:12:00,56.0,48.0,-100.00,SE,130,11.0,19.0,76,0.00,,,0.00,,2013-06-04 09:12:00,
2013-06-04 04:22:00,56.0,48.0,-100.00,ESE,115,8.0,18.0,76,0.00,,,0.00,,2013-06-04 09:22:00,
2013-06-04 04:33:00,55.0,48.0,-100.00,SE,125,4.0,9.0,77,0.00,,,0.00,,2013-06-04 09:33:00,
2013-06-04 04:43:00,55.0,48.0,-100.00,ESE,115,6.0,9.0,78,0.00,,,0.00,,2013-06-04 09:43:00,
2013-06-04 04:53:00,55.0,48.0,-100.00,ESE,120,6.0,9.0,78,0.00,,,0.00,,2013-06-04 09:53:00,
2013-06-04 05:02:00,55.0,48.0,-100.00,SE,125,7.0,12.0,78,0.00,,,0.00,,2013-06-04 10:02:00,
2013-06-04 05:12:00,56.0,48.0,-100.00,ESE,120,7.0,16.0,76,0.00,,,0.00,,2013-06-04 10:12:00,
2013-06-04 05:22:00,56.0,48.0,-100.00,ESE,120,10.0,16.0,76,0.00,,,0.00,,2013-06-04 10:22:00,
2013-06-04 05:33:00,56.0,48.0,-100.00,ESE,110,9.0,15.0,76,0.00,,,0.00,,2013-06-04 10:33:00,
2013-06-04 05:42:00,56.0,48.0,-100.00,ESE,110,11.0,14.0,76,0.00,,,0.00,,2013-06-04 10:42:00,
2013-06-04 05:52:00,56.0,48.0,-100.00,ESE,110,12.0,16.0,76,0.00,,,0.00,,2013-06-04 10:52:00,
2013-06-04 06:02:00,56.0,48.0,-100.00,East,90,9.0,16.0,77,0.00,,,0.00,,2013-06-04 11:02:00,
2013-06-04 06:12:00,55.0,48.0,-100.00,East,80,10.0,14.0,79,0.00,,,0.00,,2013-06-04 11:12:00,
2013-06-04 06:22:00,55.0,48.0,-100.00,ENE,70,10.0,14.0,80,0.00,,,0.00,,2013-06-04 11:22:00,
2013-06-04 06:32:00,54.0,50.0,-100.00,East,80,9.0,17.0,82,0.00,,,0.00,,2013-06-04 11:32:00,
2013-06-04 06:42:00,54.0,50.0,-100.00,East,95,9.0,13.0,83,0.00,,,0.00,,2013-06-04 11:42:00,
2013-06-04 06:52:00,54.0,50.0,-100.00,ENE,75,7.0,13.0,82,0.00,,,0.00,,2013-06-04 11:52:00,
2013-06-04 07:02:00,54.0,50.0,-100.00,ENE,60,7.0,12.0,82,0.00,,,0.00,,2013-06-04 12:02:00,
2013-06-04 07:12:00,54.0,48.0,-100.00,NE,50,9.0,12.0,82,0.00,,,0.00,,2013-06-04 12:12:00,
2013-06-04 07:22:00,54.0,48.0,-100.00,ENE,60,12.0,16.0,80,0.00,,,0.00,,2013-06-04 12:22:00,
2013-06-04 07:32:00,54.0,48.0,-100.00,ENE,65,13.0,17.0,78,0.00,,,0.00,,2013-06-04 12:32:00,
2013-06-04 07:42:00,54.0,48.0,-100.00,NE,45,11.0,18.0,77,0.00,,,0.00,,2013-06-04 12:42:00,
2013-06-04 07:52:00,53.0,48.0,-100.00,ENE,70,12.0,15.0,84,0.01,,,0.00,,2013-06-04 12:52:00,
2013-06-04 08:02:00,51.0,48.0,-100.00,NE,40,11.0,16.0,90,0.00,,,0.00,,2013-06-04 13:02:00,
2013-06-04 08:12:00,51.0,48.0,-100.00,NNE,30,7.0,15.0,92,0.00,,,0.00,,2013-06-04 13:12:00,
2013-06-04 08:22:00,50.0,48.0,-100.00,NE,55,10.0,15.0,94,0.01,,,0.00,,2013-06-04 13:22:00,
2013-06-04 08:32:00,49.0,48.0,-100.00,NE,40,11.0,17.0,96,0.00,,,0.00,,2013-06-04 13:32:00,
2013-06-04 08:42:00,49.0,48.0,-100.00,ENE,75,19.0,22.0,97,0.00,,,0.00,,2013-06-04 13:42:00,
2013-06-04 09:12:00,50.0,50.0,-100.00,ENE,75,16.0,22.0,99,0.00,,,0.00,,2013-06-04 14:12:00,
2013-06-04 09:22:00,50.0,50.0,-100.00,East,90,17.0,24.0,98,0.00,,,0.00,,2013-06-04 14:22:00,
2013-06-04 09:32:00,50.0,50.0,-100.00,East,95,20.0,25.0,98,0.00,,,0.00,,2013-06-04 14:32:00,
2013-06-04 09:42:00,51.0,50.0,-100.00,East,95,15.0,23.0,98,0.00,,,0.00,,2013-06-04 14:42:00,
2013-06-04 09:52:00,51.0,50.0,-100.00,ESE,105,12.0,21.0,98,0.00,,,0.00,,2013-06-04 14:52:00,
2013-06-04 10:02:00,51.0,50.0,-100.00,ESE,115,14.0,20.0,98,0.00,,,0.00,,2013-06-04 15:02:00,
2013-06-04 10:12:00,51.0,50.0,-100.00,ESE,105,13.0,17.0,98,0.00,,,0.00,,2013-06-04 15:12:00,
2013-06-04 10:42:00,52.0,52.0,-100.00,East,100,12.0,17.0,98,0.00,,,0.00,,2013-06-04 15:42:00,
2013-06-04 10:53:00,52.0,52.0,-100.00,East,100,13.0,20.0,98,0.00,,,0.00,,2013-06-04 15:53:00,
2013-06-04 11:03:00,52.0,52.0,-100.00,ESE,110,12.0,21.0,98,0.00,,,0.00,,2013-06-04 16:03:00,
2013-06-04 11:12:00,52.0,52.0,-100.00,ESE,110,14.0,21.0,99,0.00,,,0.00,,2013-06-04 16:12:00,
2013-06-04 12:12:00,54.0,54.0,-100.00,ESE,120,15.0,19.0,99,0.00,,,0.01,,2013-06-04 17:12:00,
2013-06-04 12:23:00,54.0,54.0,-100.00,SE,125,14.0,21.0,99,0.00,,,0.01,,2013-06-04 17:23:00,
2013-06-04 12:32:00,54.0,54.0,-100.00,ESE,115,9.0,17.0,99,0.00,,,0.01,,2013-06-04 17:32:00,
2013-06-04 12:42:00,54.0,54.0,-100.00,ESE,120,11.0,18.0,99,0.00,,,0.01,,2013-06-04 17:42:00,
2013-06-04 12:52:00,54.0,54.0,-100.00,ESE,120,12.0,19.0,99,0.00,,,0.01,,2013-06-04 17:52:00,
2013-06-04 13:52:00,56.0,55.0,-100.00,SE,125,12.0,16.0,99,0.00,,,0.01,,2013-06-04 18:52:00,
2013-06-04 14:02:00,56.0,55.0,-100.00,SE,125,12.0,17.0,98,0.00,,,0.01,,2013-06-04 19:02:00,
2013-06-04 14:12:00,56.0,55.0,-100.00,SE,125,11.0,19.0,98,0.00,,,0.01,,2013-06-04 19:12:00,
2013-06-04 14:22:00,56.0,55.0,-100.00,ESE,120,11.0,18.0,98,0.00,,,0.01,,2013-06-04 19:22:00,
2013-06-04 14:32:00,56.0,55.0,-100.00,ESE,115,12.0,17.0,98,0.00,,,0.01,,2013-06-04 19:32:00,
2013-06-04 14:42:00,56.0,55.0,-100.00,ESE,120,11.0,16.0,98,0.00,,,0.01,,2013-06-04 19:42:00,
2013-06-04 14:52:00,56.0,55.0,-100.00,SE,125,12.0,17.0,98,0.00,,,0.01,,2013-06-04 19:52:00,
2013-06-04 15:02:00,56.0,55.0,-100.00,ESE,110,11.0,17.0,98,0.00,,,0.01,,2013-06-04 20:02:00,
2013-06-04 15:12:00,56.0,55.0,-100.00,ESE,120,11.0,17.0,98,0.00,,,0.01,,2013-06-04 20:12:00,
2013-06-04 15:22:00,56.0,55.0,-100.00,SE,130,12.0,19.0,98,0.00,,,0.01,,2013-06-04 20:22:00,
2013-06-04 16:02:00,57.0,57.0,-100.00,SE,140,12.0,17.0,98,0.00,,,0.01,,2013-06-04 21:02:00,
2013-06-04 16:12:00,57.0,57.0,-100.00,ESE,115,11.0,17.0,98,0.00,,,0.01,,2013-06-04 21:12:00,
2013-06-04 17:12:00,56.0,55.0,-100.00,SE,135,12.0,17.0,98,0.00,,,0.01,,2013-06-04 22:12:00,
2013-06-04 17:22:00,56.0,55.0,-100.00,SE,135,11.0,18.0,98,0.00,,,0.01,,2013-06-04 22:22:00,
2013-06-04 17:32:00,56.0,55.0,-100.00,SE,140,10.0,16.0,98,0.00,,,0.01,,2013-06-04 22:32:00,
2013-06-04 17:42:00,56.0,55.0,-100.00,SE,125,11.0,17.0,99,0.00,,,0.01,,2013-06-04 22:42:00,
2013-06-04 17:52:00,56.0,55.0,-100.00,SE,145,13.0,20.0,99,0.00,,,0.01,,2013-06-04 22:52:00,
2013-06-04 18:02:00,56.0,55.0,-100.00,SE,140,11.0,19.0,99,0.00,,,0.01,,2013-06-04 23:02:00,
2013-06-04 18:12:00,56.0,55.0,-100.00,SE,135,11.0,16.0,99,0.00,,,0.01,,2013-06-04 23:12:00,
2013-06-04 18:22:00,56.0,55.0,-100.00,SE,145,12.0,19.0,99,0.00,,,0.01,,2013-06-04 23:22:00,
2013-06-04 18:32:00,56.0,55.0,-100.00,SE,130,12.0,18.0,99,0.00,,,0.01,,2013-06-04 23:32:00,
2013-06-04 19:22:00,55.0,54.0,-100.00,ESE,115,14.0,23.0,98,0.00,,,0.01,,2013-06-05 00:22:00,
2013-06-04 19:32:00,55.0,54.0,-100.00,ESE,115,14.0,21.0,97,0.00,,,0.01,,2013-06-05 00:32:00,
2013-06-04 19:42:00,55.0,54.0,-100.00,SE,130,11.0,19.0,96,0.00,,,0.01,,2013-06-05 00:42:00,
2013-06-04 19:52:00,55.0,54.0,-100.00,SE,125,14.0,19.0,95,0.00,,,0.01,,2013-06-05 00:52:00,
2013-06-04 20:02:00,55.0,54.0,-100.00,ESE,120,12.0,19.0,95,0.00,,,0.01,,2013-06-05 01:02:00,
2013-06-04 20:12:00,55.0,54.0,-100.00,ESE,115,13.0,20.0,94,0.00,,,0.01,,2013-06-05 01:12:00,
2013-06-04 20:22:00,55.0,54.0,-100.00,ESE,115,16.0,22.0,94,0.00,,,0.01,,2013-06-05 01:22:00,
2013-06-04 20:32:00,55.0,54.0,-100.00,SE,125,12.0,19.0,94,0.00,,,0.01,,2013-06-05 01:32:00,
2013-06-04 20:42:00,55.0,54.0,-100.00,ESE,115,11.0,21.0,94,0.00,,,0.01,,2013-06-05 01:42:00,
2013-06-04 20:52:00,55.0,54.0,-100.00,ESE,120,14.0,20.0,95,0.00,,,0.01,,2013-06-05 01:52:00,
2013-06-04 21:02:00,55.0,54.0,-100.00,ESE,120,13.0,20.0,95,0.00,,,0.01,,2013-06-05 02:02:00,
2013-06-04 21:12:00,55.0,54.0,-100.00,SE,125,10.0,20.0,95,0.00,,,0.01,,2013-06-05 02:12:00,
2013-06-04 21:22:00,55.0,54.0,-100.00,SE,130,11.0,17.0,96,0.00,,,0.01,,2013-06-05 02:22:00,
2013-06-04 21:32:00,55.0,54.0,-100.00,SE,125,12.0,17.0,96,0.00,,,0.01,,2013-06-05 02:32:00,
2013-06-04 21:42:00,55.0,54.0,-100.00,ESE,115,7.0,14.0,97,0.00,,,0.01,,2013-06-05 02:42:00,
2013-06-04 21:52:00,54.0,54.0,-100.00,SE,125,14.0,17.0,98,0.00,,,0.01,,2013-06-05 02:52:00,
2013-06-04 22:02:00,54.0,54.0,-100.00,ESE,120,10.0,17.0,98,0.00,,,0.01,,2013-06-05 03:02:00,
2013-06-04 23:02:00,54.0,54.0,-100.00,SE,145,11.0,18.0,99,0.00,,,0.01,,2013-06-05 04:02:00,
2013-06-04 23:13:00,54.0,54.0,-100.00,SE,140,10.0,17.0,99,0.00,,,0.01,,2013-06-05 04:13:00,
2013-06-04 23:22:00,54.0,54.0,-100.00,SE,130,7.0,17.0,99,0.00,,,0.01,,2013-06-05 04:22:00,
2013-06-04 23:33:00,54.0,54.0,-100.00,SSE,150,9.0,15.0,99,0.01,,,0.01,,2013-06-05 04:33:00,
2013-06-04 23:42:00,53.0,52.0,-100.00,SE,140,15.0,29.0,99,0.01,,,0.01,,2013-06-05 04:42:00,